Location: La Sioule Rivi�re
(46.3664°N, 3.3197°E)
Time: 13:05:17
(UTC+00:00)

ATLAS 2AS CENTAUR R/B - Pass Details

Date: 29 October 2020
Orbit: 939 x 1273 km, 63.7° (Epoch: 23 November)

Event Time Altitude Azimuth Distance (km) Brightness Sun altitude
Rises 18:13:18 0° 319° (NW) 4,177 6.4 -17.3°
Reaches altitude 10° 18:16:22 10° 326° (NNW) 3,172 5.6 -17.8°
Maximum altitude 18:23:33 42° 36° (NE) 1,586 3.3 -19.1°
Enters shadow 18:26:17 31° 82° (E) 1,872 3.4 -19.5°
